Location: Unspecified
(48.2082°N, 0.0000°E)
Time: 22:13:04
(UTC+00:00)

Vanguard 1 - Pass Details

Date: 30 June 2019
Orbit: 653 x 3830 km, 34.3° (Epoch: 20 July)

Event Time Altitude Azimuth Distance (km) Brightness Sun altitude
Rises 21:01:26 0° 183° (S) 7,593 14.2 -7.8°
Reaches altitude 10° 21:09:31 10° 167° (SSE) 6,849 13.8 -8.7°
Maximum altitude 21:22:00 18° 134° (SE) 6,219 13.5 -10.0°
Drops below altitude 10° 21:33:40 10° 101° (E) 6,464 13.8 -11.1°
Sets 21:40:39 0° 85° (E) 7,035 14.1 -11.8°
